Flag for Philippines Weather past 2 weeks in Makati, Philippines

Now
86 °F

Scattered clouds.


Feels Like: 92 °F
Forecast: 75 / 95 °F
Wind: 10 mph from Southeast

Location: National Airport

Current Time: Apr 2, 2015 at 6:35:33 PM

Latest Report: Apr 2, 2015 at 6:00 PM


Visibility: N/A

Pressure: 29.77 "Hg

Humidity: 62%

Dew point: 72 °F

Location of MakatiLocation

Historic Weather in Makati — Graph

°F

Makati temperature yesterday

Maximum temperature yesterday: 91 °F (at 1:00 PM)
Minimum temperature yesterday: 79 °F (at 5:00 AM)
Average temperature yesterday: 84 °F

Past Weeks' High & Low Weather Summary

 TemperatureHumidityPressure
High91 °F (Mar 19, 4:00 PM)100% (Mar 18, 7:00 PM)30.07 "Hg (Mar 18, 7:00 PM)
Low68 °F (Mar 18, 7:00 PM)43% (Mar 18, 5:00 PM)29.74 "Hg (Apr 2, 3:00 PM)
Average83 °F68%29.92 "Hg
* Reported Mar 18 5:00 PM — Apr 2 5:00 PM, Makati, Weather by CustomWeather, © 2015

Note: Actual official high and low records may vary slightly from our data, if they occured in-between our weather recording intervals... More about our weather records

Advertising

Makati weather history for previous 24 hours

 ConditionsComfort  
Time TempWeatherWind HumidityBarometerVisibility
5:00 PM
Thu, Apr 2
88 °FScattered clouds.13 mph55%29.74 "HgN/A
4:00 PM90 °FScattered clouds.15 mph52%29.74 "HgN/A
3:00 PM90 °FScattered clouds.14 mph52%29.74 "HgN/A
2:00 PM91 °FPassing clouds.13 mph49%29.80 "HgN/A
1:00 PM91 °FPassing clouds.13 mph49%29.80 "HgN/A
12:00 PM91 °FPassing clouds.12 mph49%29.83 "HgN/A
11:00 AM90 °FPassing clouds.12 mph52%29.83 "HgN/A
10:00 AM88 °FScattered clouds.12 mph55%29.86 "HgN/A
9:00 AM86 °FPassing clouds.10 mph59%29.86 "HgN/A
8:00 AM84 °FPassing clouds.10 mph66%29.86 "HgN/A
7:00 AM82 °FPassing clouds.8 mph70%29.83 "HgN/A
6:00 AM79 °FPassing clouds.7 mph79%29.80 "HgN/A
5:00 AM81 °FPassing clouds.6 mph74%29.80 "HgN/A
4:00 AM81 °FPassing clouds.7 mph74%29.80 "HgN/A
3:00 AM81 °FPassing clouds.7 mph79%29.80 "HgN/A
2:00 AM81 °FPassing clouds.6 mph79%29.83 "HgN/A
1:00 AM81 °FPassing clouds.8 mph74%29.86 "HgN/A
12:00 AM81 °FPassing clouds.9 mph74%29.86 "HgN/A
10:00 PM
Wed, Apr 1
82 °FPassing clouds.12 mph74%29.89 "HgN/A
9:00 PM82 °FPassing clouds.N/A74%29.86 "HgN/A
8:00 PM82 °FPassing clouds.10 mph79%29.86 "HgN/A
7:00 PM82 °FPassing clouds.14 mph79%29.83 "HgN/A
6:00 PM84 °FScattered clouds.13 mph70%29.80 "HgN/A
Weather by CustomWeather, © 2015

See weather overviewHow to use our weather pages